Starlink 2395

operational
NORAD ID: 47814 Int'l Des: 2021-018 Owner: SPXS Country: US Constellation: starlink
LEOCIRCULARSTARLINK_TYPE

Starlink 2395について

説明を読み込み中...

リアルタイム位置

3D地球を読み込み中...

次回通過

高度履歴

Altitude vs Time

uPlot chart will show altitude changes over time

軌道要素

1 47814U 21018AD 25303.18167732 .00002856 00000-0 21041-3 0 9996
2 47814 53.0540 117.4927 0000535 70.9259 289.1788 15.06416908256982
Epoch: Oct 30, 2025 • Age: 12 hours

現在のステータス

高度 557.5 km
速度 7.58 km/s
衛星直下点 -32.40°S, 37.01°E
打ち上げ日 Mar 11, 2021
運用期間 4.6 years
タイプ internet

技術仕様

分類 Payload
質量 260.00 kg
乾燥質量 248.00 kg
総質量 260.00 kg
長さ 0.20 m
直径 2.80 m
スパン 9.00 m
形状 Box + pan
製造者 SPXS
バスタイプ Starlink
フェーズステータス In Orbit
所有者/国 SPXS/US

大規模コンステレーション

Loading constellations...